OBJECT E

Satellite information

Favourite Embed

Satellite Type and Status

UNKNOWNDECAYED

Key statistics

Satellite OBJECT E at a glance.

Uptime

153

Days in orbit

Revolutions

≈ 15.5

Per day

Orbit

SSO

Sun Synchronous Orbit

Inclination

97.7

Latest

Satellite identification and parameters

Extended collection of information and parameters for OBJECT E.

Object identification

Identified? True

Debris? False

Object name: OBJECT E

International designator: 2024-016E

Object number (NORAD): 58824

Object ID (CCSDS): 58824

Country: PEOPLES REPUBLIC OF CHINA (PRC)

Current information (Y/N): Y

RCS size: LARGE

Orbital parameters

Decay date: June 24, 2024

Period: 92.66 minutes

Inclination: 97.6655 deg

SMA: 6782.994 km

Apoapsis: 528.202 km

Periapsis: 281.515 km

RAAN: 120.5582 deg

Eccentricy: 0.0181842

Argument of periapsis: 313.1124 deg

Mean anomaly: 45.5037 deg

Mean motion: 15.54070246 rev/day

Mean motion (dot): 0.00093485 rev/day2

B* drag term: 0.00069 1/REarth

Two-line elements (TLE)

Creation date: Feb. 12, 2024, 3:07 a.m.

Reference frame: TEME

Reference center: EARTH

Epoch: Feb. 11, 2024, 8:54 p.m. UTC

TLE line 0: 0 OBJECT E

TLE line 1: 1 58824U 24016E 24042.87083357 .00093485 45113-5 69000-3 0 9999

TLE line 2: 2 58824 97.6655 120.5582 0181842 313.1124 45.5037 15.54070246 3044

Live tracking on map

Satellite OBJECT E has decayed and is no longer in orbit. No tracking available.

In-orbit conjunctions

Satellite OBJECT E has decayed and is no longer in orbit. No conjunctions available.

Associated space launch

Carries 5 Earth and spatial observation satellites manufactured by MINOSPACE; details TBD: * Taijing-1-03 * Taijing-2-02 * Taijing-2-04 * Taijing-3-02 * Taijing-4-03

OBJECT E was lifted into orbit during the mission ‘Kinetica 1 | Flight 3’, on board a Kinetica 1 space rocket.

The launch took place on Jan. 23, 2024, 4:03 a.m. from Launch Area 130.

For more information about the launch, click the button.

Launch to space Kinetica 1 | Flight 3
Kinetica 1 | Flight 3

Agency: N/A

Status: Launch Successful

Launch date: Jan. 23, 2024, 4:03 a.m. UTC

Rocket: Kinetica 1

Launch pad: Launch Area 130

Location: Jiuquan Satellite Launch Center, People's Republic of China

...

Latest news about this satellite

There are no fresh news available about this satellite. Check back as we update our databases every day.


Newsletter sign-up

Weekly statistics, charts and insights to help you stay on top of the space industry.